Home   Weather   Cape Town   Past weeks

Flag for South Africa Past Weather in Cape Town, South Africa — Yesterday and Last 2 Weeks

Now
66 °F

Clear.


Feels Like: 66 °F
Forecast: 58 / 74 °F
Wind: 14 mph from Southwest

Location: Cape Town International Airport

Current Time: Apr 23, 2017 at 8:19:03 pm

Latest Report: Apr 23, 2017 at 7:00 pm


Visibility: 10 mi

Pressure: 29.98 "Hg

Humidity: 60%

Dew Point: 52 °F

Location of Cape TownLocation

Past Weather in Cape Town — Graph

°F

Cape Town Temperature Yesterday

Maximum temperature yesterday: 82 °F (at 12:00 pm)
Minimum temperature yesterday: 54 °F (at 8:00 am)
Average temperature yesterday: 65 °F

High & Low Weather Summary for the Past Weeks

 TemperatureHumidityPressure
High88 °F (Apr 18, 2:00 pm)94% (Apr 9, 3:00 am)30.39 "Hg (Apr 9, 3:00 am)
Low50 °F (Apr 14, 5:00 am)27% (Apr 16, 1:30 pm)29.77 "Hg (Apr 12, 4:00 pm)
Average65 °F68%30.04 "Hg
* Reported Apr 8 7:00 pm — Apr 23 7:00 pm, Cape Town, Weather by CustomWeather, © 2017

Note: Actual official high and low records may vary slightly from our data, if they occured in-between our weather recording intervals... More about our weather records

Advertising

Cape Town Weather History for the Previous 24 Hours

Scroll right to see more
 ConditionsComfort  
Time TempWeatherWind HumidityBarometerVisibility
7:00 pm
Sun, Apr 23
66 °FClear.14 mph60%29.98 "Hg10 mi
6:00 pm77 °FPassing clouds.6 mph44%29.98 "HgN/A
5:00 pm77 °FPassing clouds.12 mph47%29.98 "HgN/A
4:00 pm84 °FPassing clouds.15 mph37%29.98 "HgN/A
3:00 pm86 °FSunny.16 mph33%29.98 "Hg10 mi
2:00 pm86 °FSunny.13 mph31%30.01 "Hg10 mi
1:00 pm84 °FPassing clouds.14 mph37%30.01 "HgN/A
12:00 pm77 °FSunny.23 mph44%30.04 "Hg10 mi
11:00 am79 °FSunny.14 mph39%30.04 "Hg10 mi
10:20 am75 °FPassing clouds.7 mph47%30.04 "HgN/A
9:00 am68 °FSunny.10 mph56%30.04 "Hg10 mi
8:00 am63 °FSunny.13 mph73%30.01 "Hg10 mi
7:00 am59 °FClear.9 mph77%30.01 "Hg10 mi
6:00 am59 °FClear.7 mph72%30.01 "Hg10 mi
5:00 am59 °FClear.9 mph72%29.98 "Hg10 mi
4:30 am63 °FClear.14 mph68%29.98 "Hg10 mi
4:00 am54 °FClear.7 mph88%30.01 "Hg10 mi
3:00 am61 °FPassing clouds.8 mph77%29.98 "HgN/A
2:00 am61 °FClear.10 mph77%30.01 "Hg10 mi
1:00 am59 °FClear.12 mph82%30.01 "Hg10 mi
12:00 am59 °FClear.9 mph88%30.01 "Hg10 mi
11:00 pm
Sat, Apr 22
59 °FClear.6 mph82%30.04 "Hg10 mi
10:00 pm61 °FClear.8 mph83%30.04 "Hg10 mi
8:00 pm61 °FClear.10 mph83%30.04 "Hg10 mi
Weather by CustomWeather, © 2017

See weather overviewHow to use our weather pages